Regional Weather Roundup
Issued by NWS Bismarck, ND

Home | Current Version | Previous Version | Text Only | Print | Product List | Glossary On
Versions: 1 2 3 4 5 6 7 8 9 10 11 12 13 14 15 16 17 18 19 20 21 22 23 24 25 26 27 28 29 30 31 32 33 34 35 36 37 38 39 40 41 42 43 44 45 46 47 48 49 50
000
ASUS43 KBIS 301610
RWRBIS

NWR BROADCAST TEXT
NATIONAL WEATHER SERVICE BISMARCK ND
1100 AM CDT THU MAR 30 2017

NOTE: "FAIR" INDICATES FEW OR NO CLOUDS BELOW 12,000 FEET WITH NO
SIGNIFICANT WEATHER AND/OR OBSTRUCTIONS TO VISIBILITY.


CITY           SKY/WX    TMP DP  RH WIND       PRES   REMARKS
WILLISTON      CLOUDY    51  39  63 E6        29.71S
MINOT          CLOUDY    48  37  65 S12       29.76R
MINOT AFB      FAIR      47  38  71 S9        29.75R
BISMARCK       FAIR      44  35  70 S17       29.84F
DICKINSON      CLOUDY    46  38  73 S12       29.72S
GARRISON         N/A     44  35  70 S9        29.77F
HETTINGER ARPT CLOUDY    43  35  73 SE14      29.77R
JAMESTOWN      CLOUDY    41  37  86 S13       29.88F
LINTON           N/A     39  39 100 SE15      29.87F
MANDAN         PTSUNNY   41  36  81 S20       29.83S
STANLEY        PTSUNNY   45  45 100 SE9       29.76S
TIOGA          CLOUDY    45  45 100 E10       29.73F
WATFORD CITY   FAIR      48  41  76 E9        29.70S
$$

CITY           SKY/WX    TMP DP  RH WIND       PRES   REMARKS
GRAND FORKS    FAIR      48  41  76 S15       29.91F
GRAND FORKS AF CLOUDY    48  38  68 S16       29.91S
DEVILS LAKE    CLOUDY    45  36  70 S17       29.86S
FARGO          FAIR      46  40  79 E6        29.93S
CAVALIER       CLOUDY    43  39  87 S8        29.88R
GRAFTON        FAIR      46  39  76 S17       29.91F
GWINNER        CLOUDY    41  37  87 MISG      29.92R
LANGDON        PTSUNNY   41  41 100 S20       29.85R
ROLLA          CLOUDY    37  37 100 S13       29.82R
$$

CITY           SKY/WX    TMP DP  RH WIND       PRES   REMARKS
ABERDEEN       CLOUDY    41  34  76 E3        29.90F
MOBRIDGE       CLOUDY    43  34  70 SE12      29.83F
BUFFALO          N/A     48  40  73 SE10      29.67S
RAPID CITY     FAIR      40  39  97 SE10      29.76S
GLASGOW        FAIR      50  34  54 CALM      29.69S
SIDNEY         FAIR      53  41  63 S6        29.69S
WOLF POINT     FAIR      53  35  50 CALM      29.68F
GLENDIVE       CLOUDY    54  39  57 S6        29.69S
MILES CITY     CLOUDY    53  37  54 CALM      29.68F
BAKER          CLOUDY    50  40  68 SE6       29.71S
$$

CITY           SKY/WX    TMP DP  RH WIND       PRES   REMARKS
BILLINGS       LGT RAIN  46  42  86 W5        29.74S
GREAT FALLS    FAIR      49  34  56 W8        29.72S
REGINA         LGT RAIN  46  34  61 E7        29.72S
ESTEVAN        PTSUNNY   48  37  66 E8        29.72F
$$




USA.gov is the U.S. government's official web portal to all federal, state and local government web resources and services.